DW9882 Weather Reports


Display with metric or nautical units.
time (UTC)temp
F
wind
direction
speed
MPH
gust
MPH
rain 1hr
in
rain 24hr
in
rain mn
in
humidity
%
barometer
mb
20260906231205 91 11 0.0 5.0 0.00 0.00 0.00 33 1016.3
20260906225705 91 142 0.0 2.0 0.00 0.00 0.00 30 1016.2
20260906225206 91 142 0.0 3.0 0.00 0.00 0.00 33 1016.2
20260906224705 91 146 2.0 8.0 0.00 0.00 0.00 33 1016.2
20260906224206 91 19 2.0 8.0 0.00 0.00 0.00 32 1016.2
20260906223705 91 5 1.0 6.0 0.00 0.00 0.00 33 1016.2
20260906223205 91 60 3.0 8.0 0.00 0.00 0.00 31 1016.3
20260906222706 91 89 2.0 3.0 0.00 0.00 0.00 31 1016.4
20260906222205 91 83 2.0 5.0 0.00 0.00 0.00 31 1016.5
20260906221705 91 74 1.0 5.0 0.00 0.00 0.00 31 1016.5
20260906221206 91 6 4.0 8.0 0.00 0.00 0.00 31 1016.6
20260906220705 91 32 1.0 3.0 0.00 0.00 0.00 32 1016.6
20260906215705 91 20 1.0 3.0 0.00 0.00 0.00 33 1016.8
20260906215205 91 107 0.0 6.0 0.00 0.00 0.00 33 1016.8
20260906214705 91 11 2.0 7.0 0.00 0.00 0.00 32 1017.0
20260906214205 90 49 2.0 7.0 0.00 0.00 0.00 32 1017.0
20260906213705 90 201 1.0 3.0 0.00 0.00 0.00 33 1017.0
20260906213205 90 86 1.0 7.0 0.00 0.00 0.00 35 1017.1
20260906212705 90 3 3.0 9.0 0.00 0.00 0.00 32 1017.3
20260906212205 90 13 1.0 3.0 0.00 0.00 0.00 34 1017.3
20260906211705 89 89 3.0 8.0 0.00 0.00 0.00 33 1017.4
20260906211205 89 9 1.0 5.0 0.00 0.00 0.00 36 1017.4
20260906210705 89 58 2.0 3.0 0.00 0.00 0.00 33 1017.5
20260906210206 89 49 2.0 9.0 0.00 0.00 0.00 34 1017.6
20260906205706 89 64 1.0 3.0 0.00 0.00 0.00 33 1017.7
20260906204705 89 26 2.0 9.0 0.00 0.00 0.00 34 1017.8
20260906204205 89 48 2.0 8.0 0.00 0.00 0.00 33 1017.9
20260906203705 89 96 1.0 3.0 0.00 0.00 0.00 32 1018.0
20260906203205 89 337 2.0 5.0 0.00 0.00 0.00 34 1018.0
20260906202705 89 142 1.0 3.0 0.00 0.00 0.00 34 1018.0
20260906202205 88 45 2.0 7.0 0.00 0.00 0.00 34 1018.1
20260906201705 88 174 1.0 3.0 0.00 0.00 0.00 36 1018.2
20260906201205 87 152 1.0 3.0 0.00 0.00 0.00 35 1018.2
20260906195705 87 33 3.0 8.0 0.00 0.00 0.00 34 1018.3
20260906195205 87 61 2.0 10.0 0.00 0.00 0.00 33 1018.4
20260906194705 87 65 1.0 3.0 0.00 0.00 0.00 34 1018.4
20260906194206 87 123 1.0 6.0 0.00 0.00 0.00 36 1018.5
20260906193705 87 61 1.0 3.0 0.00 0.00 0.00 35 1018.5
20260906193205 87 46 2.0 6.0 0.00 0.00 0.00 35 1018.6
20260906192705 86 72 1.0 3.0 0.00 0.00 0.00 40 1018.7
20260906192205 86 94 1.0 3.0 0.00 0.00 0.00 36 1018.7
20260906191205 85 82 1.0 3.0 0.00 0.00 0.00 40 1018.8
20260906190705 85 134 1.0 2.0 0.00 0.00 0.00 39 1018.9
20260906185705 84 30 3.0 6.0 0.00 0.00 0.00 39 1019.1
20260906184705 83 105 1.0 3.0 0.00 0.00 0.00 41 1019.3
20260906183705 83 45 2.0 5.0 0.00 0.00 0.00 41 1019.5
20260906183205 82 60 1.0 5.0 0.00 0.00 0.00 42 1019.5
20260906182704 82 64 1.0 5.0 0.00 0.00 0.00 42 1019.5
20260906182206 82 31 1.0 5.0 0.00 0.00 0.00 43 1019.6
20260906181705 82 61 1.0 5.0 0.00 0.00 0.00 42 1019.8
20260906181205 82 38 2.0 3.0 0.00 0.00 0.00 43 1019.9
20260906180705 81 105 1.0 3.0 0.00 0.00 0.00 43 1019.9
20260906180205 81 35 2.0 6.0 0.00 0.00 0.00 44 1020.0
20260906175705 81 9 1.0 3.0 0.00 0.00 0.00 44 1020.1
20260906175205 81 353 1.0 3.0 0.00 0.00 0.00 46 1020.1
20260906174705 80 337 2.0 5.0 0.00 0.00 0.00 44 1020.2
20260906174205 80 71 1.0 3.0 0.00 0.00 0.00 46 1020.3
20260906173705 80 71 1.0 3.0 0.00 0.00 0.00 46 1020.4
20260906173205 80 29 1.0 3.0 0.00 0.00 0.00 46 1020.5
20260906172705 80 100 1.0 3.0 0.00 0.00 0.00 48 1020.6
20260906172205 79 101 1.0 3.0 0.00 0.00 0.00 49 1020.7
20260906171205 78 74 0.0 2.0 0.00 0.00 0.00 53 1020.8
20260906170705 78 74 0.0 1.0 0.00 0.00 0.00 52 1020.9
20260906170205 77 74 0.0 3.0 0.00 0.00 0.00 52 1021.0
20260906165705 77 74 1.0 3.0 0.00 0.00 0.00 53 1021.1
20260906165205 77 74 0.0 2.0 0.00 0.00 0.00 53 1021.2
20260906163705 76 40 1.0 3.0 0.00 0.00 0.00 53 1021.1
20260906163205 75 87 0.0 3.0 0.00 0.00 0.00 55 1021.1
20260906162205 74 71 1.0 3.0 0.00 0.00 0.00 59 1021.1
20260906161205 73 48 1.0 3.0 0.00 0.00 0.00 60 1021.1
20260906160705 73 48 1.0 3.0 0.00 0.00 0.00 60 1021.1
20260906160205 72 91 1.0 3.0 0.00 0.00 0.00 65 1021.1
20260906155704 72 91 1.0 2.0 0.00 0.00 0.00 66 1021.1
20260906155205 72 91 1.0 3.0 0.00 0.00 0.00 66 1021.1
20260906154704 71 91 1.0 3.0 0.00 0.00 0.00 68 1021.1
20260906154204 70 58 1.0 6.0 0.00 0.00 0.00 71 1021.1
20260906153705 70 76 1.0 3.0 0.00 0.00 0.00 71 1021.0
20260906153204 69 76 1.0 3.0 0.00 0.00 0.00 72 1021.1
20260906152705 69 76 0.0 3.0 0.00 0.00 0.00 73 1021.1
20260906152205 69 77 1.0 3.0 0.00 0.00 0.00 74 1021.1
20260906151205 68 63 1.0 3.0 0.00 0.00 0.00 76 1021.1
20260906150705 67 355 1.0 2.0 0.00 0.00 0.00 77 1021.2
20260906145705 67 355 1.0 3.0 0.00 0.00 0.00 78 1021.2
20260906145205 66 355 0.0 1.0 0.00 0.00 0.00 78 1021.2
20260906144705 66 355 1.0 3.0 0.00 0.00 0.00 79 1021.2
20260906144204 66 232 0.0 2.0 0.00 0.00 0.00 79 1021.3
20260906143705 65 232 0.0 1.0 0.00 0.00 0.00 79 1021.3
20260906143205 65 232 0.0 2.0 0.00 0.00 0.00 80 1021.3
20260906142705 65 246 0.0 0.0 0.00 0.00 0.00 81 1021.2
20260906142204 64 246 0.0 0.0 0.00 0.00 0.00 80 1021.2
20260906141705 64 246 1.0 2.0 0.00 0.00 0.00 81 1021.2
20260906141204 63 246 0.0 2.0 0.00 0.00 0.00 81 1021.2
20260906140705 63 246 0.0 2.0 0.00 0.00 0.00 81 1021.3
20260906140204 63 242 0.0 1.0 0.00 0.00 0.00 82 1021.3
20260906135705 62 242 0.0 1.0 0.00 0.00 0.00 82 1021.3
20260906135205 62 242 0.0 1.0 0.00 0.00 0.00 82 1021.3
20260906134704 62 242 0.0 1.0 0.00 0.00 0.00 82 1021.4
20260906134204 61 242 0.0 0.0 0.00 0.00 0.00 83 1021.2
20260906133204 61 242 0.0 1.0 0.00 0.00 0.00 83 1021.1
20260906132705 61 242 0.0 0.0 0.00 0.00 0.00 83 1021.1
20260906132205 61 242 0.0 0.0 0.00 0.00 0.00 83 1021.0
20260906131204 61 242 0.0 0.0 0.00 0.00 0.00 82 1021.1
20260906130704 61 242 0.0 0.0 0.00 0.00 0.00 82 1021.0
20260906125704 61 242 0.0 0.0 0.00 0.00 0.00 81 1020.9
20260906125204 61 242 0.0 0.0 0.00 0.00 0.00 81 1020.8
20260906124705 61 242 0.0 0.0 0.00 0.00 0.00 80 1020.8
20260906123705 61 242 0.0 0.0 0.00 0.00 0.00 80 1020.8
20260906123205 62 242 0.0 0.0 0.00 0.00 0.00 79 1020.8
20260906122704 62 242 0.0 0.0 0.00 0.00 0.00 79 1020.8
20260906121205 62 242 0.0 0.0 0.00 0.00 0.00 78 1020.9
20260906120204 63 242 0.0 0.0 0.00 0.00 0.00 77 1020.9
20260906115204 63 242 0.0 0.0 0.00 0.00 0.00 77 1020.8
20260906114205 63 242 0.0 0.0 0.00 0.00 0.00 76 1020.8
20260906113204 63 242 0.0 0.0 0.00 0.00 0.00 75 1020.8
20260906112704 63 242 0.0 0.0 0.00 0.00 0.00 74 1020.8
20260906112204 64 242 0.0 0.0 0.00 0.00 0.00 73 1020.8
20260906111705 64 242 0.0 0.0 0.00 0.00 0.00 72 1020.7
20260906111204 64 242 0.0 0.0 0.00 0.00 0.00 72 1020.6
20260906110704 64 242 0.0 0.0 0.00 0.00 0.00 71 1020.6
20260906110204 64 242 0.0 0.0 0.00 0.00 0.00 69 1020.5
20260906105705 64 242 0.0 1.0 0.00 0.00 0.00 68 1020.6
20260906104705 64 242 0.0 1.0 0.00 0.00 0.00 67 1020.5
20260906103204 64 227 0.0 1.0 0.00 0.00 0.00 65 1020.5
20260906102704 65 227 0.0 3.0 0.00 0.00 0.00 65 1020.4
20260906102204 65 227 0.0 0.0 0.00 0.00 0.00 64 1020.3
20260906100704 65 227 0.0 0.0 0.00 0.00 0.00 62 1020.3
20260906100204 66 227 0.0 0.0 0.00 0.00 0.00 62 1020.4
20260906095705 66 227 0.0 0.0 0.00 0.00 0.00 61 1020.3
20260906095205 66 227 0.0 0.0 0.00 0.00 0.00 60 1020.5
20260906094704 66 227 0.0 0.0 0.00 0.00 0.00 59 1020.3
20260906094204 66 227 0.0 0.0 0.00 0.00 0.00 58 1020.4
20260906093705 67 227 0.0 0.0 0.00 0.00 0.00 58 1020.3
20260906093204 67 227 0.0 0.0 0.00 0.00 0.00 58 1020.4
20260906092704 67 227 0.0 0.0 0.00 0.00 0.00 57 1020.4
20260906092205 67 227 0.0 0.0 0.00 0.00 0.00 57 1020.3
20260906091704 67 227 0.0 0.0 0.00 0.00 0.00 57 1020.3
20260906091204 67 227 0.0 0.0 0.00 0.00 0.00 56 1020.2
20260906090704 67 227 0.0 0.0 0.00 0.00 0.00 57 1020.2
20260906085704 68 227 0.0 1.0 0.00 0.00 0.00 56 1020.1
20260906085204 68 227 0.0 1.0 0.00 0.00 0.00 56 1020.0
20260906084704 69 227 0.0 0.0 0.00 0.00 0.00 56 1020.0
20260906084205 69 227 0.0 0.0 0.00 0.00 0.00 55 1020.0
20260906083704 69 227 0.0 0.0 0.00 0.00 0.00 55 1020.0
20260906083204 69 227 0.0 0.0 0.00 0.00 0.00 55 1020.0
20260906082704 70 227 0.0 0.0 0.00 0.00 0.00 54 1020.0
20260906082205 70 227 0.0 0.0 0.00 0.00 0.00 54 1019.9
20260906081704 70 227 0.0 1.0 0.00 0.00 0.00 53 1019.9
20260906081204 70 227 0.0 1.0 0.00 0.00 0.00 54 1019.9
20260906080704 70 227 0.0 0.0 0.00 0.00 0.00 53 1019.8
20260906080205 70 227 0.0 1.0 0.00 0.00 0.00 53 1019.8
20260906075704 70 227 0.0 1.0 0.00 0.00 0.00 53 1019.7
20260906075204 70 227 1.0 3.0 0.00 0.00 0.00 53 1019.7
20260906073704 70 239 1.0 2.0 0.00 0.00 0.00 52 1019.6
20260906073204 70 239 0.0 1.0 0.00 0.00 0.00 52 1019.6
20260906072704 70 239 1.0 3.0 0.00 0.00 0.00 52 1019.6
20260906072204 70 252 0.0 2.0 0.00 0.00 0.00 52 1019.6
20260906071705 70 252 0.0 0.0 0.00 0.00 0.00 53 1019.6
20260906071204 70 252 0.0 1.0 0.00 0.00 0.00 53 1019.6
20260906070704 70 252 0.0 3.0 0.00 0.00 0.00 53 1019.6
20260906070204 70 213 1.0 3.0 0.00 0.00 0.00 53 1019.6
20260906065704 70 290 1.0 3.0 0.00 0.00 0.00 54 1019.7
20260906064704 70 286 1.0 3.0 0.00 0.00 0.00 54 1019.9
20260906063204 71 277 0.0 1.0 0.00 0.00 0.00 53 1019.9
20260906062704 72 277 0.0 3.0 0.00 0.00 0.00 52 1019.9
20260906062203 72 156 0.0 0.0 0.00 0.00 0.00 52 1019.9
20260906061704 73 155 0.0 0.0 0.00 0.00 0.00 52 1020.0
20260906060705 73 155 0.0 0.0 0.00 0.00 0.00 50 1020.0
20260906060205 73 155 0.0 0.0 0.00 0.00 0.00 50 1020.0
20260906055704 74 155 0.0 0.0 0.00 0.00 0.00 50 1020.2
20260906055204 74 155 0.0 0.0 0.00 0.00 0.00 50 1020.2
20260906054704 74 155 0.0 3.0 0.00 0.00 0.00 50 1020.1
20260906054203 74 290 0.0 3.0 0.00 0.00 0.00 50 1020.1
20260906053704 74 225 0.0 3.0 0.00 0.00 0.00 49 1020.1
20260906052704 75 216 1.0 2.0 0.00 0.00 0.00 48 1020.0
20260906051205 74 213 0.0 0.0 0.00 0.00 0.00 44 1020.4
20260906050204 74 213 0.0 3.0 0.00 0.00 0.00 44 1020.5
20260906045703 74 213 1.0 3.0 0.00 0.00 0.00 44 1020.6
20260906045203 73 184 1.0 5.0 0.00 0.00 0.00 45 1020.5
20260906044704 72 205 2.0 7.0 0.00 0.00 0.00 45 1020.6
20260906044203 71 162 0.0 2.0 0.00 0.00 0.00 46 1020.6
20260906043703 71 162 0.0 5.0 0.00 0.00 0.00 47 1020.5
20260906043203 71 24 0.0 2.0 0.00 0.00 0.00 47 1020.5
20260906042704 71 24 0.0 0.0 0.00 0.00 0.00 49 1020.3
20260906042204 71 24 0.0 0.0 0.00 0.00 0.00 49 1020.0
20260906041704 71 24 0.0 1.0 0.00 0.00 0.00 49 1019.8
20260906041204 71 24 0.0 0.0 0.00 0.00 0.00 47 1019.6
20260906040704 71 24 0.0 0.0 0.00 0.00 0.00 47 1019.5
20260906035204 72 24 0.0 2.0 0.00 0.00 0.00 46 1019.5
20260906034704 72 24 0.0 0.0 0.00 0.00 0.00 45 1019.4
20260906034204 72 24 0.0 0.0 0.00 0.00 0.00 45 1019.4
20260906033704 72 24 0.0 0.0 0.00 0.00 0.00 45 1019.3
20260906033204 72 24 0.0 1.0 0.00 0.00 0.00 44 1019.2
20260906032704 73 24 0.0 0.0 0.00 0.00 0.00 43 1019.2
20260906032204 73 24 0.0 0.0 0.00 0.00 0.00 44 1019.2
20260906031704 73 24 0.0 0.0 0.00 0.00 0.00 43 1019.2
20260906030704 74 24 0.0 1.0 0.00 0.00 0.00 43 1019.1
20260906030204 75 24 0.0 0.0 0.00 0.00 0.00 43 1018.9
20260906025703 75 24 0.0 0.0 0.00 0.00 0.00 42 1018.8
20260906025204 76 24 0.0 0.0 0.00 0.00 0.00 41 1018.7
20260906024704 76 24 0.0 0.0 0.00 0.00 0.00 40 1018.6
20260906024203 77 24 0.0 0.0 0.00 0.00 0.00 40 1018.4
20260906023704 77 24 0.0 0.0 0.00 0.00 0.00 39 1018.4
20260906023204 78 24 0.0 0.0 0.00 0.00 0.00 38 1018.3
20260906022703 78 24 0.0 0.0 0.00 0.00 0.00 37 1018.4
20260906022203 79 24 0.0 0.0 0.00 0.00 0.00 36 1018.3
20260906021706 79 24 0.0 0.0 0.00 0.00 0.00 36 1018.3
20260906021205 79 24 0.0 0.0 0.00 0.00 0.00 35 1018.3
20260906020706 80 24 0.0 0.0 0.00 0.00 0.00 34 1018.3
20260906020206 80 24 0.0 1.0 0.00 0.00 0.00 34 1018.3
20260906015706 81 24 0.0 0.0 0.00 0.00 0.00 33 1018.3
20260906015206 81 24 0.0 0.0 0.00 0.00 0.00 33 1018.3
20260906014706 82 24 0.0 1.0 0.00 0.00 0.00 32 1018.2
20260906013206 82 24 0.0 0.0 0.00 0.00 0.00 30 1018.0
20260906012705 83 24 0.0 0.0 0.00 0.00 0.00 29 1018.0
20260906012207 83 24 0.0 1.0 0.00 0.00 0.00 29 1018.1
20260906011705 83 24 0.0 1.0 0.00 0.00 0.00 29 1018.1
20260906011205 83 24 0.0 2.0 0.00 0.00 0.00 29 1018.1
20260906010706 84 24 0.0 3.0 0.00 0.00 0.00 28 1018.1
20260906010206 84 0 0.0 3.0 0.00 0.00 0.00 27 1018.0
20260906005705 84 1 1.0 5.0 0.00 0.00 0.00 27 1018.0
20260906005205 84 22 1.0 3.0 0.00 0.00 0.00 27 1018.0
20260906004706 85 33 2.0 7.0 0.00 0.00 0.00 26 1018.0
20260906004206 85 1 1.0 3.0 0.00 0.00 0.00 27 1017.9
20260906003705 86 39 1.0 3.0 0.00 0.00 0.00 28 1018.0
20260906003205 86 44 0.0 3.0 0.00 0.00 0.00 30 1018.0
20260906002706 87 44 0.0 0.0 0.00 0.00 0.00 29 1018.0
20260906002205 87 44 0.0 0.0 0.00 0.00 0.00 29 1018.0
20260906001705 88 44 0.0 0.0 0.00 0.00 0.00 28 1017.9
20260906001206 88 44 0.0 0.0 0.00 0.00 0.00 27 1017.9
20260906000206 89 44 0.0 0.0 0.00 0.00 0.00 24 1017.8
20260905235705 90 44 0.0 0.0 0.00 0.00 0.00 24 1017.8
20260905235205 90 44 0.0 0.0 0.00 0.00 0.00 23 1017.8
20260905234706 90 44 0.0 0.0 0.00 0.00 0.00 23 1017.8
20260905234205 90 44 0.0 1.0 0.00 0.00 0.00 24 1017.8
20260905233706 91 44 0.0 1.0 0.00 0.00 0.00 23 1017.8
20260905232705 91 44 1.0 3.0 0.00 0.00 0.00 22 1017.8
20260905232205 91 67 0.0 3.0 0.00 0.00 0.00 22 1017.7
20260905231706 91 61 1.0 3.0 0.00 0.00 0.00 22 1017.7